星链-37208(STARLINK-37208)

导读

STARLINK-37208(NORAD编号68523)是美国SpaceX公司星链(Starlink)星座的低轨互联网通信卫星,属于Starlink Gen2系列,部署在近地轨道。作为星链全球组网的组成部分,该卫星承担全球宽带互联网覆盖任务,支持民用高速上网、应急通信及特殊场景联网需求。卫星采用平板设计与相控阵天线,配备氪离子推进系统和自主防撞能力,可通过激光星间链路实现数据传输,能自主完成轨道机动规避太空碎片,任务结束后会主动脱轨减少空间垃圾,助力星链实现全球无缝网络覆盖的战略目标。

Basic Information
目录编号:
68523
目录名称:
STARLINK-37208
国际标识:
2026-068R
轨道中心:
EARTH
卫星名称:
星链-37208
卫星全名:
星链-37208(STARLINK-37208)
卫星状态:
在轨 (已飞行120 天)
发射日期:
2026-03-30 UTC
国别 :
美国 (US)
星等 :
--
Orbit Information
数据来源 国际轨道数据 AOE轨道数据
星历时间 2026-07-27T13:08:20+0800
21小时前
查看轨道信息
2026-07-26T23:00:00+0800
1天前
查看轨道信息
半长轴 6840.843km 6840.898km
偏心率 0.0001043 0.0000862
轨道倾角 53.156° 53.155°
近地点辐角 81.267° 68.244°
升交点赤经 197.861° 200.616°
平近点角 278.845° 275.828°
近地点 461.992km 462.171km
远地点 463.42km 463.351km
周期 93.848分钟 93.849分钟
每日圈数 15.343992 15.343809
Detailed Information
固有亮度:
5
最大亮度:
2.5
卫星平台:
Starlink V1.0
覆盖范围:
全球
运营商:
太空探索技术公司
运营商所在国:
美国
制造商(研发单位):
太空探索技术公司
制造商所在国:
美国
使用方式:
暂无
Satellite Introduction
Starlink 计划是 SpaceX 推出的全球卫星互联网项目,通过发射低轨道卫星,为全球尤其是偏远地区提供高速、低延迟的互联网服务。自 2019 年起,Starlink 已部署数千颗卫星,旨在缩小全球数字鸿沟,推动互联网普及。该项目还为军事、航空等行业提供通信支持,带来广泛经济效益。
2D Orbit Map
3D Orbit Map
Orbit Altitude Analysis Chart
Orbit Inclination Analysis Chart
Orbit Comprehensive Analysis Chart
View Comprehensive Chart